This demonstration page uses our WeatherBlox Daily Observations layout. Learn more.

Left ArrowRight Arrow

Hourly Observations for May 8, 2020

Temp ( °F °C ) Dew Point ( °F °C ) Humidity (%) Winds ( mph kmh ) Pressure ( in mb ) Visibility ( mi km ) Precip ( " mm )
12:10 am 00:10 Cloudy with Rain 47 8.3 45 7.2 93 93 NNW 15 24 30.11 1020 6 10 0.04 1.02
12:52 am 00:52 Cloudy with Light Rain 47 8.3 45 7.2 93 93 NNW 8 13 30.09 1019 5 8 0.13 3.30
1:32 am 01:32 Cloudy with Light Rain 47 8.3 45 7.2 93 93 NNW 14 22 30.11 1020 6 10 0.02 0.51
1:52 am 01:52 Cloudy with Mist and Fog 47 8.3 45 7.2 93 93 N 16 26 30.09 1019 6 10 0.02 0.51
2:19 am 02:19 Cloudy 47 8.3 45 7.2 93 93 N 13 20 30.11 1020 7 11 0.00 0.00
2:52 am 02:52 Mostly Cloudy 47 8.3 44 6.7 90 90 NNW 18 30 30.09 1019 10 16 0.00 0.00
3:05 am 03:05 Cloudy 47 8.3 43 6.1 86 86 NNW 15 24 30.11 1020 10 16 0.00 0.00
3:52 am 03:52 Mostly Cloudy 44 6.7 35 1.7 71 71 NNW 21 33 30.12 1020 10 16 0.00 0.00
4:52 am 04:52 Mostly Clear 41 5 33 0.6 73 73 NNW 16 26 30.16 1021 10 16 0.00 0.00
5:52 am 05:52 Mostly Clear 39 3.9 31 -0.6 73 73 N 16 26 30.20 1023 10 16 0.00 0.00
6:52 am 06:52 Sunny 38 3.3 31 -0.6 76 76 N 16 26 30.24 1024 10 16 0.00 0.00
7:52 am 07:52 Sunny 40 4.4 30 -1.1 68 68 NNW 17 28 30.26 1025 10 16 0.00 0.00
8:52 am 08:52 Sunny 43 6.1 32 0 65 65 NNW 16 26 30.28 1025 10 16 0.00 0.00
9:52 am 09:52 Sunny 46 7.8 33 0.6 61 61 NNW 16 26 30.29 1026 10 16 0.00 0.00
10:52 am 10:52 Sunny 49 9.4 32 0 52 52 N 12 19 30.30 1026 10 16 0.00 0.00
11:52 am 11:52 Mostly Sunny 51 10.6 28 -2.2 41 41 N 17 28 30.30 1026 10 16 0.00 0.00
12:52 pm 12:52 Mostly Sunny 54 12.2 29 -1.7 38 38 NW 16 26 30.29 1026 10 16 0.00 0.00
1:52 pm 13:52 Mostly Sunny 55 12.8 26 -3.3 33 33 NW 13 20 30.29 1026 10 16 0.00 0.00
2:52 pm 14:52 Mostly Sunny 56 13.3 28 -2.2 34 34 NNW 17 28 30.27 1025 10 16 0.00 0.00
3:52 pm 15:52 Mostly Sunny 58 14.4 27 -2.8 31 31 NNW 20 31 30.24 1024 10 16 0.00 0.00
4:52 pm 16:52 Mostly Sunny 58 14.4 26 -3.3 29 29 N 14 22 30.23 1024 10 16 0.00 0.00
5:52 pm 17:52 Mostly Cloudy 58 14.4 25 -3.9 28 28 NNW 15 24 30.22 1024 10 16 0.00 0.00
6:52 pm 18:52 Mostly Cloudy 57 13.9 26 -3.3 30 30 NNW 18 30 30.22 1023 10 16 0.00 0.00
7:52 pm 19:52 Mostly Cloudy 54 12.2 28 -2.2 37 37 NW 10 17 30.21 1023 10 16 0.00 0.00
8:52 pm 20:52 Mostly Clear 49 9.4 31 -0.6 50 50 NW 6 9 30.22 1023 10 16 0.00 0.00
9:52 pm 21:52 Mostly Clear 48 8.9 30 -1.1 50 50 WNW 3 6 30.24 1024 10 16 0.00 0.00
10:52 pm 22:52 Clear 47 8.3 32 0 56 56 NNW 3 6 30.25 1024 10 16 0.00 0.00
11:52 pm 23:52 Clear 44 6.7 33 0.6 65 65 Calm 30.25 1024 10 16 0.00 0.00

Powered by AerisWeather